Location: Clanezzo
(45.7500°N, 9.6000°E)
Time: 20:19:29
(UTC+00:00)

FO-29 - Visible Passes

Search period start: 26 June 2022 00:00
Search period end: 06 July 2022 00:00
Orbit: 801 x 1320 km, 98.5° (Epoch: 26 June)

Date Brightness Start Highest point End Pass type
(mag) Time Alt. Az. Time Alt. Az. Time Alt. Az.
26 Jun 12.7 19:56:09 10° WSW 19:59:19 13° W 20:02:34 10° NW visible
28 Jun 12.6 19:50:31 10° WSW 19:54:14 14° W 19:58:03 10° NW visible
30 Jun 12.6 19:44:59 10° WSW 19:49:10 15° W 19:53:27 10° NW visible
